User: anonymous   Login
Location: Monroe
(41.9160°N, 83.3980°W)
Time: 04:58:52
(UTC-05:00)
Language:

ISS - Orbit

View from above orbital plane
View from above orbital plane
View from above satellite
View from above satellite

Ground track
Ground track

The orbit data is extracted from the following two-line orbital elements,

1 25544U 98067A   14329.74916817  .00024215  00000-0  40873-3 0  4615
2 25544 051.6474 018.5849 0007105 066.3147 037.3019 15.51477872916392
Epoch (UTC): 25 November 2014 17:58:48
Eccentricity: 0.0007105
inclination: 51.6474°
perigee height: 407 km
apogee height: 417 km
right ascension of ascending node: 18.5849°
argument of perigee: 66.3147°
revolutions per day: 15.51477872
mean anomaly at epoch: 37.3019°
orbit number at epoch: 91639

The dashed part of the orbit path shows where the satellite is in the earth's shadow,  

DLR